[[{"header":{"parameterUnit":"m.s-1","parameterCategory":1,"la1":30.2991,"la2":30.254,"lo1":-89.0895,"lo2":-89.0444,"dy":0.0017,"dx":0.0017,"nx":28,"ny":28,"refTime":"2023-09-30T21:00:00:Z","depth":0,"parameterNumber":2,"parameterNumberName":"U-component_of_WINDS"},"data":[0,0,0,0,0,0,0,0,0,0,0,0,0,0,0,0,0,0,0,0,0,0,0,0,0,0,0,0,0,0,0,0,0,0,0,0,0,0,0,0,0,0,0,0,0,0,0,0,0,0,0,0,0,0,0,0,0,0,-6.2011,-6.2011,0,-6.2026,-6.2026,-6.2026,-6.1799,-6.1793,-6.1787,-6.1781,-6.1799,-6.1805,-6.1811,0,0,0,0,0,0,0,0,0,0,0,0,0,-6.1787,-6.1792,-6.2011,-6.2011,-6.2011,-6.2026,-6.2026,-6.2026,-6.1801,-6.1793,-6.1786,-6.1779,-6.1797,-6.1804,-6.1812,0,0,0,0,0,0,0,0,0,0,0,0,0,-6.1852,-6.1794,-6.2011,-6.19,-6.1891,-6.2026,-6.2026,-6.2026,-6.1802,-6.1793,-6.1784,-6.1775,-6.1795,-6.1804,-6.1813,-6.2056,0,0,-6.1841,-6.1845,0,0,0,0,0,0,0,0,-6.1848,-6.186,-6.1916,-6.1908,-6.1897,-6.1901,-6.1953,-6.2036,-6.1804,-6.1836,-6.1781,-6.177,-6.1841,-6.1846,-6.1869,-6.2056,-6.2057,-6.1842,-6.1848,-6.1852,-6.1855,0,0,0,0,0,0,0,-6.1844,-6.1858,-6.2017,-6.1918,-6.1906,-6.185,-6.1849,-6.1968,-6.189,-6.1832,-6.1816,-6.1821,-6.1834,-6.1861,-6.1868,-6.2057,-6.1842,-6.185,-6.1856,-6.186,-6.2442,-6.2451,0,0,0,0,0,0,-6.1854,-6.1856,-6.2016,-6.2017,-6.1849,-6.1862,-6.186,-6.191,-6.1888,-6.1876,-6.1829,-6.181,-6.1849,-6.1857,-6.1867,-6.2147,-6.1852,-6.1861,-6.1866,-6.2432,-6.2444,-6.2454,0,0,0,0,0,0,-6.185,-6.1871,-6.2016,-6.1932,-6.1946,-6.1875,-6.1932,-6.1915,-6.1941,-6.1885,-6.187,-6.187,-6.1842,-6.1854,-6.201,-6.2145,-6.1865,-6.1873,-6.242,-6.2435,-6.2449,-6.2712,0,0,0,0,0,0,-6.1845,-6.1871,-6.1962,-6.1936,-6.1952,-6.2159,-6.1941,-6.1922,-6.1957,-6.1933,-6.192,-6.1909,-6.1836,-6.1997,-6.2019,-6.2153,-6.1881,-6.2408,-6.2427,-6.2444,-6.2691,-6.2734,-6.2771,0,0,0,0,0,-6.1838,-6.2037,-6.1968,-6.1989,-6.2065,-6.2167,-6.2176,-6.2086,-6.1969,-6.206,-6.2024,-6.191,-6.2127,-6.2015,-6.2038,-6.2176,-6.2399,-6.2422,-6.2443,-6.2673,-6.2725,-6.277,0,0,0,0,0,0,-6.2082,-6.2031,-6.1955,-6.2151,-6.2165,-6.2128,-6.224,-6.2146,-6.2193,-6.2169,-6.2057,-6.2056,-6.2229,-6.2218,-6.2094,-6.2409,-6.2242,-6.227,-6.2409,-6.2458,-6.2498,-6.2496,-6.1888,0,0,0,0,0,-6.2159,-6.2246,-6.2197,-6.2375,-6.2386,-6.2313,-6.2354,-6.2284,-6.2294,-6.2299,-6.2274,-6.2288,-6.2359,-6.2408,-6.2471,-6.2689,-6.2681,-6.2795,-6.2835,-6.2868,-6.2893,-6.3005,-6.3054,-6.2527,-6.2527,-6.2527,0,0,-6.2319,-6.2301,-6.2363,-6.2424,-6.2426,-6.2518,-6.2319,-6.2426,-6.2492,-6.2315,-6.2459,-6.2442,-6.245,-6.2637,-6.2718,-6.2634,-6.3037,-6.2897,-6.2923,-6.293,-6.3032,-6.3082,-6.3127,-6.2542,-6.254,-6.2537,0,0,-6.2655,-6.2653,-6.2799,-6.2805,-6.281,-6.276,-6.2796,-6.2773,-6.2754,-6.2897,-6.2765,-6.2844,-6.2969,-6.298,-6.3002,-6.3342,-6.3237,-6.3366,-6.3574,-6.3684,-6.3725,-6.3761,-6.388,-6.3925,-6.3391,-6.3392,-6.3392,0,-6.2853,-6.2986,-6.2886,-6.3001,-6.303,-6.2873,-6.302,-6.3031,-6.3058,-6.3082,-6.2986,-6.3139,-6.3134,-6.3319,-6.3402,-6.3426,-6.3462,-6.3366,-6.3727,-6.3763,-6.3795,-6.3907,-6.3952,-6.3407,-6.3405,-6.3404,-6.3402,0,-6.3227,-6.3322,-6.3439,-6.3467,-6.351,-6.3641,-6.3561,-6.3616,-6.3543,-6.3503,-6.3649,-6.3638,-6.3694,-6.3733,-6.3664,-6.3909,-6.3856,-6.3747,-6.3576,-6.3862,-6.3965,-6.4008,-6.3429,-6.3423,-6.3419,-6.3415,0,0,-6.3718,-6.3688,-6.3733,-6.3742,-6.3736,-6.3807,-6.393,-6.3984,-6.4033,-6.4057,-6.4156,-6.4265,-6.4163,-6.4188,-6.4118,-6.4215,-6.4482,-6.4092,-6.4091,-6.4163,-6.4749,-6.483,-6.4882,-6.4414,-6.4421,-6.4428,-6.4748,0,-6.4043,-6.425,-6.4164,-6.4379,-6.4463,-6.4315,-6.4422,-6.443,-6.4396,-6.4463,-6.4425,-6.4503,-6.4363,-6.4377,-6.4467,-6.4431,-6.4598,-6.4407,-6.4504,-6.4508,-6.4504,-6.4936,-6.5022,-6.5325,-6.4788,-6.4795,-6.48,0,-6.445,-6.4488,-6.4712,-6.4688,-6.4721,-6.4819,-6.4859,-6.4926,-6.4932,-6.49,-6.4928,-6.4835,-6.4954,-6.4787,-6.4947,-6.4819,-6.4854,-6.4843,-6.4852,-6.4856,-6.467,-6.4949,-6.5419,-6.5464,-6.4863,-6.4858,-6.4853,0,-6.4782,-6.489,-6.5037,-6.505,-6.5028,-6.5099,-6.5093,-6.5089,-6.5127,-6.5163,-6.5186,-6.5237,-6.5265,-6.5306,-6.523,-6.5116,-6.5401,-6.5228,-6.5377,-6.5379,-6.5442,-6.5438,-6.5922,-6.547,-6.5469,-6.5468,-6.5467,0,-6.5153,-6.5295,-6.5185,-6.5275,-6.5429,-6.5329,-6.5484,-6.5462,-6.546,-6.5543,-6.5419,-6.55,-6.5395,-6.5465,-6.5407,-6.5547,-6.5562,-6.5539,-6.5521,-6.5548,-6.5551,-6.5568,-6.5544,-6.548,-6.5477,-6.5475,-6.5473,0,-6.5549,-6.5482,-6.5631,-6.5597,-6.5592,-6.5707,-6.5677,-6.5759,-6.5716,-6.5822,-6.5842,-6.5775,-6.5851,-6.5779,-6.5853,-6.5813,-6.6,-6.5954,-6.5998,-6.5984,-6.6136,-6.6122,-6.6645,-6.6707,-6.6218,-6.6223,-6.6227,0,-6.5788,-6.5893,-6.587,-6.5916,-6.5917,-6.5994,-6.603,-6.5936,-6.5979,-6.5993,-6.6073,-6.6139,-6.6185,-6.6315,-6.6273,-6.6328,-6.6279,-6.6459,-6.6287,-6.631,-6.6279,-6.6272,-6.6281,-6.6494,-6.6499,-6.6504,-6.6508,0,-6.622,-6.6181,-6.6238,-6.6284,-6.6331,-6.6363,-6.6385,-6.643,-6.6333,-6.6388,-6.6463,-6.65,-6.6574,-6.664,-6.6681,-6.6675,-6.6576,-6.6563,-6.66,-6.6627,-6.6647,-6.6636,-6.6091,-6.6551,-6.6546,-6.6543,-6.6541,-6.6539,-6.6542,-6.6628,-6.6624,-6.6692,-6.6698,-6.6722,-6.6796,-6.6762,-6.6823,-6.6874,-6.6815,-6.6908,-6.6909,-6.6954,-6.696,-6.7031,-6.6955,-6.7009,-6.7022,-6.7037,-6.7057,-6.6639,-6.7039,-6.7037,-6.7036,-6.7035,-6.7034,0,-6.6964,-6.6954,-6.7018,-6.7052,-6.7105,-6.7006,-6.7026,-6.7076,-6.7159,-6.7168,-6.7217,-6.7303,-6.7367,-6.733,-6.7384,-6.7448,-6.7403,-6.7465,-6.7458,-6.7457,-6.7124,-6.7085,-6.75,-6.7499,-6.7499,-6.7499,-6.7499,-6.7499,-6.719,-6.7328,-6.7289,-6.7429,-6.7418,-6.7506,-6.7526,-6.7546,-6.7553,-6.7655,-6.7706,-6.7681,-6.7672,-6.7724,-6.7778,-6.7765,-6.779,-6.7868,-6.7839,-6.7527,-6.7481,-6.7437,-6.74,-6.7874,-6.7875,-6.8166,-6.8169,-6.8171]},{"header":{"parameterUnit":"m.s-1","parameterCategory":1,"la1":30.2991,"la2":30.254,"lo1":-89.0895,"lo2":-89.0444,"dy":0.0017,"dx":0.0017,"nx":28,"ny":28,"refTime":"2023-09-30T21:00:00:Z","depth":0,"parameterNumber":3,"parameterNumberName":"V-component_of_WINDS"},"data":[0,0,0,0,0,0,0,0,0,0,0,0,0,0,0,0,0,0,0,0,0,0,0,0,0,0,0,0,0,0,0,0,0,0,0,0,0,0,0,0,0,0,0,0,0,0,0,0,0,0,0,0,0,0,0,0,0,0,-1.978,-1.978,0,-1.9817,-1.9817,-1.9818,-1.9818,-1.9817,-1.9817,-1.9817,-1.9854,-1.9855,-1.9856,0,0,0,0,0,0,0,0,0,0,0,0,0,-1.9706,-1.9707,-1.978,-1.978,-1.978,-1.9817,-1.9817,-1.9818,-1.9818,-1.9817,-1.9817,-1.9816,-1.9853,-1.9855,-1.9856,0,0,0,0,0,0,0,0,0,0,0,0,0,-1.974,-1.9708,-1.9779,-1.9785,-1.9786,-1.9817,-1.9817,-1.9818,-1.9818,-1.9817,-1.9817,-1.9816,-1.9853,-1.9855,-1.9857,-1.9884,0,0,-1.9863,-1.9864,0,0,0,0,0,0,0,0,-1.9738,-1.9743,-1.9784,-1.9785,-1.9786,-1.9812,-1.9805,-1.984,-1.9818,-1.9806,-1.9817,-1.9816,-1.984,-1.9843,-1.9852,-1.9886,-1.9887,-1.9863,-1.9865,-1.9866,-1.9866,0,0,0,0,0,0,0,-1.9736,-1.9741,-1.9794,-1.9784,-1.9786,-1.9785,-1.9789,-1.9812,-1.9827,-1.9807,-1.9807,-1.9811,-1.9841,-1.985,-1.9853,-1.9888,-1.9863,-1.9865,-1.9867,-1.9867,-1.9944,-1.9945,0,0,0,0,0,0,-1.9732,-1.9739,-1.9793,-1.9795,-1.976,-1.9787,-1.9791,-1.9804,-1.9826,-1.9829,-1.9812,-1.9811,-1.9847,-1.985,-1.9854,-1.9886,-1.9866,-1.9868,-1.9869,-1.9943,-1.9944,-1.9945,0,0,0,0,0,0,-1.9731,-1.9737,-1.9792,-1.9767,-1.9774,-1.9789,-1.9803,-1.9805,-1.9815,-1.983,-1.9833,-1.9819,-1.9846,-1.9851,-1.9876,-1.9887,-1.9869,-1.9871,-1.9942,-1.9943,-1.9944,-1.9951,0,0,0,0,0,0,-1.9729,-1.9737,-1.9748,-1.9768,-1.9775,-1.9814,-1.9804,-1.9807,-1.9818,-1.9818,-1.9837,-1.984,-1.9846,-1.9873,-1.9878,-1.989,-1.9872,-1.9941,-1.9943,-1.9944,-1.995,-1.9952,-1.9955,0,0,0,0,0,-1.9726,-1.9749,-1.9749,-1.9755,-1.979,-1.9815,-1.9819,-1.9826,-1.9819,-1.983,-1.984,-1.9839,-1.9885,-1.9876,-1.9882,-1.9894,-1.9941,-1.9942,-1.9944,-1.9949,-1.9952,-1.9954,0,0,0,0,0,0,-1.973,-1.9752,-1.9752,-1.9781,-1.9796,-1.9815,-1.9829,-1.9829,-1.9846,-1.9845,-1.9852,-1.9857,-1.9881,-1.989,-1.9879,-1.9921,-1.9912,-1.9915,-1.9914,-1.9917,-1.9919,-1.9916,-1.9874,0,0,0,0,0,-1.9735,-1.9754,-1.9771,-1.9795,-1.9803,-1.9814,-1.9825,-1.9829,-1.9845,-1.9851,-1.9863,-1.9877,-1.9895,-1.9906,-1.9924,-1.9951,-1.9955,-1.9963,-1.9965,-1.9967,-1.9969,-1.9982,-1.9986,-1.995,-1.995,-1.995,0,0,-1.9744,-1.9758,-1.977,-1.9796,-1.9808,-1.9827,-1.982,-1.984,-1.9853,-1.9854,-1.9878,-1.9887,-1.9904,-1.993,-1.9942,-1.9938,-1.9979,-1.9969,-1.997,-1.9971,-1.9984,-1.9988,-1.9991,-1.9952,-1.9951,-1.9951,0,0,-1.977,-1.9783,-1.9804,-1.9816,-1.9834,-1.9841,-1.9846,-1.9864,-1.987,-1.9894,-1.9895,-1.991,-1.9941,-1.9952,-1.9962,-1.999,-1.9989,-1.9995,-2.0007,-2.002,-2.0023,-2.0025,-2.0034,-2.0037,-1.9998,-1.9998,-1.9998,0,-1.978,-1.9808,-1.9815,-1.9835,-1.9846,-1.9847,-1.9867,-1.9878,-1.9901,-1.9908,-1.9903,-1.994,-1.9952,-1.998,-1.9986,-1.9995,-1.9999,-1.9993,-2.0022,-2.0024,-2.0027,-2.0035,-2.0038,-1.9998,-1.9998,-1.9998,-1.9998,0,-1.9817,-1.9837,-1.9851,-1.9873,-1.9885,-1.9905,-1.9914,-1.9926,-1.9928,-1.9936,-1.9959,-1.9973,-1.9992,-1.9999,-2.0002,-2.0027,-2.0023,-2.002,-2.0012,-2.003,-2.0038,-2.0042,-1.9999,-1.9999,-1.9999,-1.9999,0,0,-1.9848,-1.9872,-1.9877,-1.9886,-1.9905,-1.9919,-1.9939,-1.9957,-1.9966,-1.9982,-1.9997,-2.0022,-2.0018,-2.0029,-2.0033,-2.0045,-2.0064,-2.004,-2.004,-2.0043,-2.009,-2.0092,-2.0096,-2.0064,-2.0064,-2.0065,-2.0089,0,-1.9876,-1.991,-1.9916,-1.9946,-1.9963,-1.9963,-1.9979,-1.9992,-1.9999,-2.0014,-2.0021,-2.0038,-2.0033,-2.004,-2.0051,-2.0059,-2.0073,-2.0058,-2.0077,-2.0078,-2.0072,-2.01,-2.0103,-2.0124,-2.0092,-2.0092,-2.0093,0,-1.9912,-1.9928,-1.9959,-1.9974,-1.9981,-1.9996,-2.0012,-2.0027,-2.004,-2.0044,-2.0056,-2.0058,-2.0076,-2.0067,-2.0092,-2.0081,-2.0089,-2.0094,-2.0095,-2.0097,-2.0086,-2.0102,-2.0132,-2.0135,-2.0098,-2.0098,-2.0097,0,-1.993,-1.9959,-1.9981,-1.9988,-2.0006,-2.0016,-2.0024,-2.0037,-2.0048,-2.0062,-2.0068,-2.0084,-2.0093,-2.0105,-2.011,-2.0103,-2.0134,-2.0126,-2.0137,-2.0137,-2.0144,-2.0143,-2.0174,-2.015,-2.015,-2.015,-2.015,0,-1.996,-1.9978,-1.9988,-2.0002,-2.0022,-2.0028,-2.0048,-2.0056,-2.0067,-2.0081,-2.0082,-2.0095,-2.0103,-2.0116,-2.0121,-2.014,-2.0144,-2.0147,-2.0148,-2.0146,-2.0146,-2.0152,-2.015,-2.0151,-2.0151,-2.015,-2.015,0,-1.9983,-1.9991,-2.0014,-2.0029,-2.0033,-2.0047,-2.006,-2.0072,-2.0078,-2.0096,-2.01,-2.011,-2.0126,-2.0133,-2.0153,-2.0156,-2.0177,-2.0177,-2.0172,-2.0172,-2.0183,-2.0181,-2.0219,-2.0223,-2.0196,-2.0197,-2.0197,0,-2.0001,-2.0016,-2.0031,-2.0041,-2.0049,-2.0064,-2.0074,-2.008,-2.009,-2.0106,-2.0116,-2.0132,-2.0145,-2.017,-2.0178,-2.0193,-2.0193,-2.0205,-2.0195,-2.0193,-2.0192,-2.0191,-2.0192,-2.0207,-2.0207,-2.0207,-2.0207,0,-2.0032,-2.0034,-2.0049,-2.0064,-2.0076,-2.0088,-2.01,-2.0108,-2.0115,-2.0126,-2.0143,-2.0153,-2.0172,-2.0187,-2.0202,-2.021,-2.0209,-2.021,-2.0213,-2.0212,-2.0208,-2.0209,-2.0176,-2.0209,-2.0209,-2.0209,-2.0209,-2.0209,-2.0053,-2.0065,-2.0077,-2.0092,-2.0102,-2.0113,-2.0124,-2.0132,-2.0145,-2.0162,-2.0164,-2.0181,-2.0192,-2.0212,-2.022,-2.0232,-2.0229,-2.0234,-2.0236,-2.0236,-2.0237,-2.0206,-2.0235,-2.0235,-2.0235,-2.0235,-2.0235,0,-2.0082,-2.009,-2.0104,-2.012,-2.0132,-2.0131,-2.0143,-2.0153,-2.0168,-2.0179,-2.0191,-2.0209,-2.0223,-2.0232,-2.0246,-2.0255,-2.0255,-2.0258,-2.0257,-2.0259,-2.0239,-2.0234,-2.0258,-2.0258,-2.0258,-2.0258,-2.0258,-2.0258,-2.0099,-2.0119,-2.0123,-2.0146,-2.0154,-2.017,-2.0177,-2.0186,-2.0195,-2.0214,-2.0226,-2.0232,-2.0242,-2.0256,-2.0269,-2.0271,-2.0276,-2.0279,-2.0281,-2.0263,-2.026,-2.0258,-2.0253,-2.028,-2.028,-2.0299,-2.0299,-2.03]}]]